This is the latest recevied weather packets stored in our database for station/object SQ6XL-13. If no packets are shown the sender has not sent any weather packets the latest 10 day(s).
| Time | Temp. | Humidity | Pressure | Rain* | Wind** | Luminosity | Snow |
|---|---|---|---|---|---|---|---|
| 1777295037 | 15° C | 36% | 1022.2 hPa | 0 mm | - | - | - |
| 1777294457 | 14.44° C | 35% | 1022.3 hPa | 0 mm | - | - | - |
| 1777293877 | 14.44° C | 36% | 1022.5 hPa | 0 mm | - | - | - |
| 1777293287 | 15° C | 39% | 1022.4 hPa | 0 mm | - | - | - |
| 1777292777 | 14.44° C | 40% | 1022.5 hPa | 0 mm | - | - | - |
| 1777292212 | 14.44° C | 38% | 1022.5 hPa | 0 mm | - | - | - |
| 1777291642 | 14.44° C | 38% | 1022.7 hPa | 0 mm | - | - | - |
| 1777291087 | 15° C | 38% | 1022.8 hPa | 0 mm | - | - | - |
| 1777290602 | 15° C | 38% | 1022.7 hPa | 0 mm | - | - | - |
| 1777290107 | 14.44° C | 39% | 1022.9 hPa | 0 mm | - | - | - |
| 1777289517 | 14.44° C | 38% | 1022.8 hPa | 0 mm | - | - | - |
| 1777289002 | 14.44° C | 38% | 1023 hPa | 0 mm | - | - | - |
| 1777288491 | 14.44° C | 37% | 1023.1 hPa | 0 mm | - | - | - |
| 1777287971 | 14.44° C | 38% | 1023 hPa | 0 mm | - | - | - |
| 1777287397 | 14.44° C | 37% | 1023.1 hPa | 0 mm | - | - | - |
| 1777286887 | 14.44° C | 37% | 1023.2 hPa | 0 mm | - | - | - |
| 1777286352 | 13.89° C | 37% | 1023.2 hPa | 0 mm | - | - | - |
| 1777285751 | 13.89° C | 39% | 1023.3 hPa | 0 mm | - | - | - |
| 1777285157 | 13.89° C | 38% | 1023.5 hPa | 0 mm | - | - | - |
| 1777284567 | 13.89° C | 39% | 1023.4 hPa | 0 mm | - | - | - |
| 1777283997 | 13.89° C | 39% | 1023.4 hPa | 0 mm | - | - | - |
| 1777283471 | 13.89° C | 38% | 1023.5 hPa | 0 mm | - | - | - |
| 1777282957 | 13.33° C | 38% | 1023.6 hPa | 0 mm | - | - | - |
| 1777282371 | 12.78° C | 39% | 1023.7 hPa | 0 mm | - | - | - |
| 1777281857 | 12.78° C | 39% | 1023.8 hPa | 0 mm | - | - | - |
* Rain latest hour (hover to see other rain measurements)
** Current wind speed in m/s (hover to see current wind gust speed)